sat.trackr.live / text

‹ back to catalog

STARLINK-36079

NORAD 66897 · 2025-283V

PAYLOAD ACTIVE UNKNOWN

§ Identity

Operator
Country
US
Launch date
2025-12-04
Launch site
AFWTR
Launch vehicle
Mass (kg)
RCS (m²)

Purposes: comms

External: N2YO · Heavens-Above · Gunter

§ Orbital elements

Epoch: 2026-09-20T04:59:02.577408Z

Period
93.85 min
Inclination
53.1588°
Eccentricity
0.0001482
Mean motion
15.34391228 rev/d
Perigee alt
461.7 km
Apogee alt
463.7 km
Semi-major
6,840.9 km
B*
5.6261e-4
RAAN
197.2533°
Arg perigee
81.5648°
Mean anomaly
278.5522°
Rev number
4,566

§ Raw data

STARLINK-360791 66897U 25283V   26263.20766872  .00018675  00000+0  56261-3 0  99922 66897  53.1588 197.2533 0001482  81.5648 278.5522 15.34391228 45665

JSON: /api/v1/satellites/66897 · /tle

For live sub-satellite position, see the globe view (requires WebGL).

§ Visibility from observer

Set your observer location to see the next 7 days of passes ≥ 10°. The values pass through the URL so the page stays shareable.

No JS? Fill the form by hand. The geolocation button needs JavaScript.